Weather History for Reno - Stead, NV

Change the Weather History Date:

Tuesday, November 13, 2012

  Actual Average (KRNO) Record (KRNO)
Temperature  
Mean Temperature 36 °F 44 °F  
Max Temperature 55 °F 56 °F 75 °F (1990)
Min Temperature 17 °F 31 °F 7 °F (1898)
Degree Days  
Heating Degree Days 29 21  
Month to date heating degree days 250  
Since 1 July heating degree days 686  
Cooling Degree Days 0 0  
Month to date cooling degree days 0  
Year to date cooling degree days 839  
Moisture  
Dew Point 22 °F    
Average Humidity 58    
Maximum Humidity 80    
Minimum Humidity 36    
Precipitation  
Precipitation 0.00 in 0.03 in 1.33 in (1981)
Month to date precipitation 0.31  
Year to date precipitation 5.86  
Snow  
Snow - 0.10 in 4.00 in (1978)
Month to date snowfall 1.0  
Since 1 July snowfall 1.4  
Since 1 September snowfall 1.4  
Snow Depth -    
Sea Level Pressure  
Sea Level Pressure 30.26 in    
Wind  
Wind Speed 2 mph ()    
Max Wind Speed 8 mph    
Max Gust Speed -    
Visibility 10.0 miles    
Events      
T = Trace of Precipitation, MM = Missing Value Source: Averaged Metar Reports

Daily Weather History Graph

Daily Weather History Graph

Search for Another Location

Airport:

Trip Planner

Search our weather history database for the weather conditions in past years. The results will help you decide how hot, cold, wet, or windy it might be!

Date:

Astronomy

Nov. 13, 2012 Rise Set
Actual Time 6:42 AM PST 4:45 PM PST
Civil Twilight 6:13 AM PST 5:13 PM PST
Nautical Twilight 5:41 AM PST 5:46 PM PST
Astronomical Twilight 5:09 AM PST 6:18 PM PST
Moon 6:26 AM PST (11/13) 4:42 PM PST (11/13)
Length of Visible Light 11h 00m
Length of Day
10h 02m
Waning Crescent, 0% of the Moon is Illuminated
Nov 13
Waning Crescent
Nov 13
New
Nov 20
First Quarter
Nov 28
Full
Dec 6
Last Quarter

Hourly Weather History & Observations

Time (PST) Temp. Windchill Dew Point Humidity Pressure Visibility Wind Dir Wind Speed Gust Speed Precip Events Conditions
12:10 AM 24.8 °F - 15.8 °F 69% 30.33 in 10.0 mi Calm Calm - N/A   Clear
12:50 AM 21.2 °F - 14.0 °F 74% 30.33 in 10.0 mi Calm Calm - N/A   Clear
1:10 AM 21.2 °F - 14.0 °F 74% 30.33 in 10.0 mi Calm Calm - N/A   Clear
1:30 AM 23.0 °F 17.0 °F 15.8 °F 74% 30.32 in 10.0 mi NNE 4.6 mph - N/A   Clear
1:50 AM 23.0 °F - 15.8 °F 74% 30.32 in 10.0 mi Calm Calm - N/A   Clear
2:10 AM 24.8 °F - 17.6 °F 74% 30.32 in 10.0 mi Calm Calm - N/A   Clear
2:30 AM 19.4 °F - 12.2 °F 74% 30.32 in 10.0 mi Calm Calm - N/A   Clear
2:50 AM 19.4 °F - 12.2 °F 74% 30.32 in 10.0 mi Calm Calm - N/A   Clear
3:10 AM 19.4 °F 14.3 °F 14.0 °F 80% 30.31 in 10.0 mi North 3.5 mph - N/A   Clear
3:30 AM 23.0 °F - 15.8 °F 74% 30.31 in 10.0 mi Calm Calm - N/A   Clear
4:30 AM 17.6 °F 12.3 °F 12.2 °F 79% 30.30 in 10.0 mi North 3.5 mph - N/A   Clear
4:50 AM 19.4 °F - 14.0 °F 80% 30.30 in 10.0 mi Calm Calm - N/A   Clear
5:10 AM 17.6 °F 12.3 °F 12.2 °F 79% 30.30 in 10.0 mi NNW 3.5 mph - N/A   Clear
5:30 AM 17.6 °F - 12.2 °F 79% 30.31 in 10.0 mi Calm Calm - N/A   Clear
5:50 AM 19.4 °F 12.8 °F 14.0 °F 80% 30.31 in 10.0 mi NNE 4.6 mph - N/A   Clear
6:10 AM 19.4 °F - 14.0 °F 80% 30.31 in 10.0 mi Calm Calm - N/A   Clear
6:30 AM 19.4 °F - 14.0 °F 80% 30.32 in 10.0 mi Calm Calm - N/A   Clear
6:50 AM 19.4 °F - 14.0 °F 80% 30.32 in 10.0 mi Calm Calm - N/A   Clear
7:10 AM 19.4 °F - 14.0 °F 80% 30.31 in 10.0 mi Calm Calm - N/A   Partly Cloudy
7:30 AM 23.0 °F - 17.6 °F 80% 30.31 in 10.0 mi Calm Calm - N/A   Mostly Cloudy
7:50 AM 26.6 °F - 19.4 °F 74% 30.31 in 10.0 mi Calm Calm - N/A   Mostly Cloudy
8:10 AM 28.4 °F - 19.4 °F 69% 30.32 in 10.0 mi Calm Calm - N/A   Mostly Cloudy
8:30 AM 30.2 °F - 19.4 °F 64% 30.32 in 10.0 mi Calm Calm - N/A   Mostly Cloudy
8:50 AM 32.0 °F 28.7 °F 21.2 °F 64% 30.32 in 10.0 mi WSW 3.5 mph - N/A   Overcast
9:10 AM 33.8 °F - 23.0 °F 65% 30.31 in 10.0 mi Calm Calm - N/A   Overcast
9:30 AM 35.6 °F - 23.0 °F 60% 30.31 in 10.0 mi Calm Calm - N/A   Overcast
9:50 AM 37.4 °F - 23.0 °F 56% 30.31 in 10.0 mi Calm Calm - N/A   Mostly Cloudy
10:10 AM 41.0 °F - 23.0 °F 49% 30.32 in 10.0 mi Calm Calm - N/A   Mostly Cloudy
10:30 AM 42.8 °F - 24.8 °F 49% 30.31 in 10.0 mi Calm Calm - N/A   Mostly Cloudy
10:50 AM 44.6 °F - 24.8 °F 46% 30.30 in 10.0 mi Calm Calm - N/A   Scattered Clouds
11:30 AM 48.2 °F - 24.8 °F 40% 30.27 in 10.0 mi SSE 5.8 mph - N/A   Clear
11:50 AM 50.0 °F - 26.6 °F 40% 30.26 in 10.0 mi SSW 3.5 mph - N/A   Clear
12:10 PM 51.8 °F - 26.6 °F 38% 30.25 in 10.0 mi South 3.5 mph - N/A   Clear
12:30 PM 51.8 °F - 26.6 °F 38% 30.25 in 10.0 mi ENE 4.6 mph - N/A   Clear
12:50 PM 53.6 °F - 28.4 °F 38% 30.24 in 10.0 mi SE 5.8 mph - N/A   Clear
1:10 PM 53.6 °F - 28.4 °F 38% 30.23 in 10.0 mi SE 5.8 mph - N/A   Clear
1:30 PM 55.4 °F - 28.4 °F 36% 30.22 in 10.0 mi East 6.9 mph - N/A   Clear
1:50 PM 55.4 °F - 28.4 °F 36% 30.21 in 10.0 mi SE 8.1 mph - N/A   Clear
2:10 PM 53.6 °F - 28.4 °F 38% 30.21 in 10.0 mi East 8.1 mph - N/A   Mostly Cloudy
2:30 PM 55.4 °F - 28.4 °F 36% 30.20 in 10.0 mi East 6.9 mph - N/A   Overcast
2:50 PM 55.4 °F - 28.4 °F 36% 30.20 in 10.0 mi ESE 6.9 mph - N/A   Overcast
3:10 PM 53.6 °F - 28.4 °F 38% 30.19 in 10.0 mi SE 4.6 mph - N/A   Mostly Cloudy
3:30 PM 53.6 °F - 28.4 °F 38% 30.19 in 10.0 mi South 4.6 mph - N/A   Clear
3:50 PM 53.6 °F - 28.4 °F 38% 30.19 in 10.0 mi SSE 4.6 mph - N/A   Mostly Cloudy
4:10 PM 53.6 °F - 28.4 °F 38% 30.19 in 10.0 mi SSE 5.8 mph - N/A   Overcast
4:30 PM 53.6 °F - 28.4 °F 38% 30.19 in 10.0 mi SSE 5.8 mph - N/A   Overcast
4:50 PM 51.8 °F - 28.4 °F 41% 30.19 in 10.0 mi SSE 3.5 mph - N/A   Overcast
5:10 PM 50.0 °F - 26.6 °F 40% 30.20 in 10.0 mi East 5.8 mph - N/A   Overcast
5:30 PM 48.2 °F - 26.6 °F 43% 30.20 in 10.0 mi East 6.9 mph - N/A   Overcast
5:50 PM 48.2 °F - 24.8 °F 40% 30.21 in 10.0 mi East 5.8 mph - N/A   Overcast
6:10 PM 48.2 °F - 24.8 °F 40% 30.21 in 10.0 mi ESE 4.6 mph - N/A   Overcast
6:30 PM 48.2 °F - 26.6 °F 43% 30.21 in 10.0 mi SSW 3.5 mph - N/A   Scattered Clouds
6:50 PM 46.4 °F 45.2 °F 24.8 °F 43% 30.22 in 10.0 mi West 3.5 mph - N/A   Clear
7:10 PM 42.8 °F 41.1 °F 24.8 °F 49% 30.22 in 10.0 mi WNW 3.5 mph - N/A   Clear
7:30 PM 44.6 °F - 26.6 °F 49% 30.22 in 10.0 mi Calm Calm - N/A   Clear
7:50 PM 39.2 °F 35.9 °F 23.0 °F 52% 30.22 in 10.0 mi NNW 4.6 mph - N/A   Clear
8:10 PM 39.2 °F 35.9 °F 24.8 °F 56% 30.21 in 10.0 mi North 4.6 mph - N/A   Clear
8:30 PM 44.6 °F 43.1 °F 26.6 °F 49% 30.21 in 10.0 mi NNE 3.5 mph - N/A   Clear
8:50 PM 46.4 °F - 32.0 °F 57% 30.21 in 10.0 mi Calm Calm - N/A   Clear
9:10 PM 44.6 °F 43.1 °F 30.2 °F 57% 30.21 in 10.0 mi NNW 3.5 mph - N/A   Clear
9:30 PM 35.6 °F 32.8 °F 24.8 °F 65% 30.21 in 10.0 mi NNW 3.5 mph - N/A   Clear
9:50 PM 37.4 °F - 26.6 °F 65% 30.21 in 10.0 mi Calm Calm - N/A   Clear
10:10 PM 35.6 °F - 24.8 °F 65% 30.22 in 10.0 mi Calm Calm - N/A   Clear
10:30 PM 35.6 °F 31.7 °F 26.6 °F 70% 30.22 in 10.0 mi North 4.6 mph - N/A   Clear
10:50 PM 37.4 °F - 28.4 °F 70% 30.22 in 10.0 mi Calm Calm - N/A   Clear
11:10 PM 33.8 °F - 24.8 °F 70% 30.23 in 10.0 mi Calm Calm - N/A   Clear
11:30 PM 32.0 °F - 26.6 °F 80% 30.23 in 10.0 mi Calm Calm - N/A   Clear
11:50 PM 32.0 °F - 24.8 °F 75% 30.23 in 10.0 mi Calm Calm - N/A   Clear